# Land Stadt Wetter Temperatur Luftdruck Luftfeuchtigkeit Sichtweite Windgeschwindigkeit Windrichtung Ortszeit
1 et Addis Abeba Clouds 15 1029 77 10000 11 60 02.08.2018 14:23
2 tr Alanya Clouds 3 1023 69 8000 8 350 02.08.2018 14:22
3 au Alice Springs Clouds 24 1013 23 10000 9 110 02.08.2018 14:21
4 ru Amderma Snow -19 989 95 0 24 42 02.08.2018 14:23
5 ru Anadyr Snow -16 1026 77 10000 4 350 02.08.2018 14:23
6 ch Andermatt Clouds 0 1023 93 0 9 90 02.08.2018 14:23
7 ad Andorra la Vella Clouds 2 1013 72 0 6 187 02.08.2018 14:22
8 tr Ankara Clear -6 1030 85 10000 4 246 02.08.2018 14:23
9 mg Antananarivo Clouds 19 1018 93 10000 9 120 02.08.2018 14:21
10 gr Athen Clouds 5 1030 80 10000 5 0 02.08.2018 14:22
11 ck Avarua Clouds 26 1013 88 10000 18 30 02.08.2018 14:22
12 iq Bagdad Rain 9 1015 93 5000 22 160 02.08.2018 14:22
13 th Bangkok Clouds 27 1010 88 10000 9 170 02.08.2018 14:21
14 es Barcelona Clouds 8 1022 81 10000 11 320 02.08.2018 14:22
15 de Berlin Mist 0 1021 70 3500 15 250 02.08.2018 14:21
16 ch Bern Mist -1 1023 100 4900 2 0 02.08.2018 14:23
17 fr Bordeaux Clouds 7 1020 100 9000 9 130 02.08.2018 14:21
18 de Braunschweig Clouds 0 1022 77 6000 13 260 02.08.2018 14:21
19 de Bremen Mist 1 1022 73 5000 13 230 02.08.2018 14:22
20 ar Buenos Aires Clear 31 1007 52 10000 21 330 02.08.2018 14:22
21 ma Casablanca Rain 13 1018 93 10000 17 220 02.08.2018 14:23
22 us Chicago Rain 3 1008 93 402 6 55 02.08.2018 14:23
23 pe Cusco Clouds 20 1027 34 10000 13 10 02.08.2018 14:23
24 au Darwin Clouds 29 1008 83 10000 11 300 02.08.2018 14:22
25 us Death Valley Clouds 15 1016 36 0 5 79 02.08.2018 14:22
26 us Denver Clear 11 1015 25 16093 15 10 02.08.2018 14:21
27 qa Doha Clear 14 1020 63 10000 8 310 02.08.2018 14:23
28 de Dresden Clouds -3 1022 92 10000 2 0 02.08.2018 14:22
29 ae Dubai Clear 17 1019 72 10000 8 190 02.08.2018 14:21
30 ie Dublin Clouds 5 1019 87 10000 8 220 02.08.2018 14:21
31 de Emden Mist 3 1021 93 3100 17 210 02.08.2018 14:21
32 ar Esquel Clouds 17 1016 51 10000 22 260 02.08.2018 14:22
33 us Fairbanks Snow -20 1009 83 8047 4 327 02.08.2018 14:23
34 de Flensburg Clouds 5 1017 100 10000 13 250 02.08.2018 14:21
35 de Frankfurt Clouds 0 1024 65 6000 4 150 02.08.2018 14:22
36 de Freiburg Clouds 0 1023 92 6000 2 0 02.08.2018 14:22
37 gb Glasgow Mist 8 1017 93 4300 24 210 02.08.2018 14:21
38 de Hamburg Drizzle 2 1020 100 3200 18 230 02.08.2018 14:21
39 no Hammerfest Snow -2 983 100 4000 30 90 02.08.2018 14:22
40 de Hannover Mist 0 1022 77 3500 13 220 02.08.2018 14:21
41 vn Hanoi Clouds 20 1012 94 7000 13 70 02.08.2018 14:21
42 de Helgoland Drizzle 3 1020 93 2500 17 230 02.08.2018 14:22
43 fi Helsinki Clouds 0 996 92 10000 13 220 02.08.2018 14:21
44 de Hiddensee Clouds 3 1023 92 0 2 247 02.08.2018 14:21
45 sb Honiara Clouds 27 1008 83 10000 3 224 02.08.2018 14:22
46 us Honolulu Clouds 26 1020 57 16093 11 200 02.08.2018 14:22
47 at Innsbruck Clouds -1 1024 86 10000 5 230 02.08.2018 14:23
48 tr Istanbul Clear 4 1030 60 10000 13 200 02.08.2018 14:23
49 in Jagatsukh Clouds 2 1021 39 0 10 347 02.08.2018 14:22
50 id Jakarta Mist 24 1009 100 4000 20 310 02.08.2018 14:22
51 ru Jakutsk Fog -46 1030 63 250 4 350 02.08.2018 14:22
52 af Kabul Clouds -1 1022 79 8000 11 340 02.08.2018 14:21
53 eg Kairo Clouds 10 1027 53 10000 13 10 02.08.2018 14:22
54 za Kapstadt Clouds 18 1012 100 10000 15 240 02.08.2018 14:22
55 de Kassel Clouds -1 1023 92 6000 8 230 02.08.2018 14:21
56 ua Kiew Clouds 1 1015 69 10000 18 270 02.08.2018 14:21
57 cd Kisangani Clouds 23 1011 39 0 1 256 02.08.2018 14:23
58 de Köln Clouds 1 1024 63 10000 5 100 02.08.2018 14:21
59 bo La Paz Clouds 18 1034 34 10000 21 110 02.08.2018 14:22
60 es Las Palmas de Gran Canaria Clouds 16 1022 67 10000 8 300 02.08.2018 14:21
61 us Las Vegas Clouds 17 1017 29 16093 5 70 02.08.2018 14:21
62 cn Lhasa Clear -16 1031 27 0 6 52 02.08.2018 14:22
63 pt Lissabon Rain 10 1015 100 10000 8 40 02.08.2018 14:22
64 gb London Clouds 6 1022 93 9000 11 200 02.08.2018 14:22
65 us Los Angeles Clear 21 1015 29 16093 5 250 02.08.2018 14:22
66 es Madrid Clouds 7 1019 93 10000 5 340 02.08.2018 14:23
67 de Magdeburg Clouds 1 1023 87 0 11 289 02.08.2018 14:22
68 it Mailand Rain 5 1027 75 10000 8 40 02.08.2018 14:21
69 mv Male Clouds 29 1012 79 9000 30 70 02.08.2018 14:23
70 br Manaus Clouds 31 1007 79 10000 4 70 02.08.2018 14:21
71 gb Manchester Mist 6 1020 100 5000 4 0 02.08.2018 14:21
72 ph Manila Rain 24 1012 94 10000 4 0 02.08.2018 14:21
73 ma Marrakesch Clouds 12 1019 71 8000 4 0 02.08.2018 14:23
74 mx Mexiko Stadt Clouds 21 1024 26 16093 13 230 02.08.2018 14:21
75 us Miami Clouds 24 1016 57 16093 17 130 02.08.2018 14:23
76 uy Montevideo Clear 29 1008 48 10000 11 270 02.08.2018 14:22
77 ca Montreal Clouds 0 1028 97 14484 18 30 02.08.2018 14:22
78 ru Moskau Rain 2 997 100 9000 18 250 02.08.2018 14:22
79 in Mumbai Smoke 26 1014 65 3500 8 57 02.08.2018 14:22
80 de München Clouds -1 1022 79 10000 5 170 02.08.2018 14:21
81 jp Nagasaki Rain 11 1024 87 10000 2 0 02.08.2018 14:21
82 in Nagpur Haze 17 1017 82 3000 11 44 02.08.2018 14:21
83 ke Nairobi Clouds 18 1023 88 10000 8 360 02.08.2018 14:22
84 bs Nassau Clouds 23 1016 69 10000 15 100 02.08.2018 14:22
85 us New York Clear 8 1026 45 16093 21 98 02.08.2018 14:22
86 fr Nizza Rain 9 1022 87 9000 5 20 02.08.2018 14:22
87 us Nome Clear -27 1025 68 16093 10 353 02.08.2018 14:23
88 de Nürnberg Mist -3 1023 86 4500 9 100 02.08.2018 14:21
89 gl Nuuk Clouds -11 992 56 10000 17 300 02.08.2018 14:22
90 de Oberstdorf Fog 0 1023 52 250 5 270 02.08.2018 14:21
91 no Oslo Clouds 1 1004 55 10000 15 160 02.08.2018 14:23
92 it Palermo Clear 12 1025 76 10000 13 200 02.08.2018 14:22
93 es Palma de Mallorca Clouds 12 1023 87 10000 5 20 02.08.2018 14:22
94 fr Paris Fog -1 1023 71 350 4 0 02.08.2018 14:22
95 cn Peking Clear -5 1034 92 6000 7 360 02.08.2018 14:23
96 au Perth Clouds 18 1015 87 10000 13 210 02.08.2018 14:21
97 pg Port Moresby Clouds 25 1010 88 10000 9 320 02.08.2018 14:21
98 bo Potisi Clouds 14 1009 29 0 26 95 02.08.2018 14:22
99 is Reykjavik Snow -1 990 80 10000 30 70 02.08.2018 14:22
100 sa Riad Clear 12 1020 34 10000 15 170 02.08.2018 14:21
101 br Rio de Janeiro Clouds 24 1004 83 10000 13 330 02.08.2018 14:22
102 it Rom Clouds 11 1024 62 10000 9 140 02.08.2018 14:23
103 fi Rovaniemi Fog -12 983 100 750 4 0 02.08.2018 14:21
104 ec San Cristobal Clouds 28 1008 74 10000 22 190 02.08.2018 14:22
105 cl Santiago Clear 31 1015 35 10000 15 240 02.08.2018 14:23
106 do Santo Domingo Clouds 27 1012 74 10000 11 360 02.08.2018 14:21
107 kr Seoul Mist -1 1030 78 6000 4 32 02.08.2018 14:21
108 es Sevilla Clouds 11 1017 93 10000 11 150 02.08.2018 14:22
109 cn Shanghai Clouds 8 1025 87 10000 18 30 02.08.2018 14:21
110 bg Sofia Clear -3 1027 85 8000 4 0 02.08.2018 14:21
111 se Stockholm Clear 4 1003 75 10000 21 260 02.08.2018 14:23
112 de Stuttgart Clouds -1 1022 92 10000 4 0 02.08.2018 14:22
113 ru Surgut Snow -9 991 92 3600 14 200 02.08.2018 14:23
114 fj Suva Clouds 29 1009 74 10000 6 92 02.08.2018 14:21
115 au Sydney Clouds 24 1014 73 10000 17 70 02.08.2018 14:22
116 es Tarifa Rain 14 1018 82 5000 9 150 02.08.2018 14:21
117 jp Tokio Clouds 6 1027 49 10000 31 360 02.08.2018 14:22
118 de Torfhaus Clouds 0 1022 77 6000 13 260 02.08.2018 14:22
119 de Trier Fog -1 1022 100 400 6 165 02.08.2018 14:21
120 us Tucson Haze 22 1014 26 6437 5 290 02.08.2018 14:21
121 mn Ulaanbaatar Clear -28 1022 75 6000 4 0 02.08.2018 14:23
122 mn Uliastai Clear -16 1030 51 0 16 120 02.08.2018 14:23
123 ar Ushuaia Clouds 13 994 54 10000 12 149 02.08.2018 14:22
124 mx Veracruz Clouds 24 1017 73 8047 15 80 02.08.2018 14:21
125 bg Warna Clear 0 1025 59 8000 11 360 02.08.2018 14:21
126 nz Wellington Clouds 18 1016 82 10000 35 10 02.08.2018 14:23
127 ru Werchojansk Clouds -42 1033 87 0 1 161 02.08.2018 14:22
128 at Wien Mist -1 1025 92 4300 5 140 02.08.2018 14:22